Location: Augustenthal
(51.7167°N, 10.2833°E)
Time: 04:32:43
(UTC+00:00)

Cosmos 2150 Rocket - Pass Details

Date: 18 May 2021
Orbit: 750 x 807 km, 74.0° (Epoch: 14 June)

Event Time Altitude Azimuth Distance (km) Brightness Sun altitude
Exits shadow 22:28:56 20° 215° (SW) 1,764 5.5 -17.8°
Maximum altitude 22:32:43 72° 297° (WNW) 817 4.2 -17.9°
Drops below altitude 10° 22:37:58 10° 22° (NNE) 2,316 7.4 -18.1°
Sets 22:40:21 0° 25° (NNE) 3,238 8.2 -18.1°
